DW8542 Weather Reports


time (UTC)temp
C
wind
direction
speed
KPH
gust
KPH
rain 1hr
cm
rain 24hr
cm
rain mn
cm
humidity
%
barometer
mb
20260507174537 17 0.0 0.0 0.00 1.17 0.76 51 1001.8
20260507173017 16 0.0 0.0 0.00 1.17 0.76 54 1001.9
20260507171511 16 0.0 0.0 0.00 1.17 0.76 56 1002.2
20260507170011 16 0.0 0.0 0.00 1.17 0.76 61 1002.2
20260507164509 15 0.0 0.0 0.00 1.17 0.76 58 1002.3
20260507163007 15 0.0 0.0 0.00 1.17 0.76 63 1002.4
20260507161504 15 0.0 0.0 0.00 1.17 0.76 67 1002.7
20260507160007 15 0.0 0.0 0.00 1.17 0.76 65 1003.1
20260507154501 14 0.0 0.0 0.00 1.17 0.76 68 1003.2
20260507153058 14 0.0 0.0 0.00 1.17 0.76 70 1003.1
20260507151600 13 0.0 0.0 0.00 1.17 0.76 71 1003.3
20260507150053 13 0.0 0.0 0.00 1.17 0.76 74 1003.4
20260507144551 12 0.0 0.0 0.00 1.17 0.76 82 1003.7
20260507143052 11 0.0 0.0 0.00 1.17 0.76 82 1004.0
20260507141548 11 0.0 0.0 0.00 1.17 0.76 86 1003.9
20260507140052 11 0.0 0.0 0.00 1.17 0.76 87 1004.4
20260507134543 10 0.0 0.0 0.00 1.17 0.76 91 1004.1
20260507133043 8 0.0 0.0 0.00 1.17 0.76 92 1004.2
20260507131609 8 0.0 0.0 0.00 1.17 0.76 93 1004.3
20260507130041 8 0.0 0.0 0.00 1.17 0.76 94 1004.1
20260507124550 8 0.0 0.0 0.00 1.17 0.76 94 1003.8
20260507123045 8 0.0 0.0 0.00 1.17 0.76 94 1004.3
20260507121541 8 0.0 0.0 0.00 1.17 0.76 94 1003.9
20260507120042 8 0.0 0.0 0.00 1.17 0.76 94 1004.6
20260507114539 8 0.0 0.0 0.00 1.17 0.76 94 1004.7
20260507113102 8 0.0 0.0 0.00 1.17 0.76 94 1004.6
20260507111534 8 0.0 0.0 0.00 1.17 0.76 94 1003.8
20260507110038 8 0.0 0.0 0.00 1.17 0.76 94 1003.8
20260507104532 8 0.0 0.0 0.00 1.17 0.76 94 1003.4
20260507103033 8 0.0 0.0 0.00 1.17 0.76 94 1003.5
20260507101530 8 0.0 0.0 0.00 1.17 0.76 94 1003.4
20260507100041 8 0.0 0.0 0.00 1.17 0.76 94 1003.7
20260507094527 8 0.0 0.0 0.00 1.17 0.76 94 1003.6
20260507093028 8 0.0 0.0 0.00 1.17 0.76 94 1002.5
20260507091523 9 0.0 0.0 0.00 1.17 0.76 94 1002.8
20260507090020 9 0.0 0.0 0.03 1.17 0.76 94 1003.0
20260507084539 9 0.0 0.0 0.05 1.17 0.76 94 1002.8
20260507083024 10 0.0 0.0 0.13 1.17 0.76 94 1002.6
20260507081520 10 0.0 0.0 0.25 1.17 0.76 94 1002.6
20260507080017 10 0.0 0.0 0.38 1.14 0.71 94 1002.5
20260507074517 9 0.0 0.0 0.48 1.12 0.71 94 1002.3
20260507073020 9 0.0 0.0 0.43 1.04 0.64 94 1001.8
20260507071517 9 0.0 0.0 0.33 0.91 0.51 94 1001.9
20260507070019 9 0.0 0.0 0.18 0.76 0.36 94 1002.8
20260507064512 10 0.0 0.0 0.05 0.64 0.23 94 1002.5
20260507063013 10 0.0 0.0 0.03 0.61 0.20 94 1002.3
20260507061506 10 0.0 0.0 0.03 0.58 0.18 94 1002.4
20260507060004 10 0.0 0.0 0.05 0.58 0.18 93 1002.5
20260507054503 10 0.0 0.0 0.05 0.58 0.18 94 1002.6
20260507053002 10 0.0 0.0 0.08 0.58 0.18 93 1002.6
20260507051607 10 0.0 0.0 0.05 0.56 0.15 93 1002.8
20260507050110 10 0.0 0.0 0.08 0.53 0.13 93 1002.9
20260507044558 11 0.0 0.0 0.18 0.53 0.13 93 1003.1
20260507043053 11 0.0 0.0 0.20 0.51 0.10 93 1003.3
20260507041551 11 0.0 0.0 0.28 0.51 0.10 93 1003.5
20260507040050 11 0.0 0.0 0.23 0.43 0.03 93 1003.9
20260507034547 11 0.0 0.0 0.20 0.36 0.36 93 1003.9
20260507033048 11 0.0 0.0 0.23 0.30 0.30 93 1004.1
20260507031544 11 0.0 0.0 0.20 0.23 0.23 93 1004.3
20260507030044 11 0.0 0.0 0.20 0.20 0.20 92 1004.6
20260507024545 11 0.0 0.0 0.15 0.15 0.15 92 1005.1
20260507023039 11 0.0 0.0 0.05 0.05 0.05 92 1005.7
20260507021547 11 0.0 0.0 0.03 0.03 0.03 92 1006.0
20260507020034 11 0.0 0.0 0.00 0.00 0.00 92 1006.3
20260507014531 11 0.0 0.0 0.00 0.00 0.00 92 1006.5
20260507013035 11 0.0 0.0 0.00 0.00 0.00 91 1006.7
20260507011532 11 0.0 0.0 0.00 0.00 0.00 91 1007.0
20260507010038 11 0.0 0.0 0.00 0.00 0.00 91 1007.6
20260507004525 11 0.0 0.0 0.00 0.00 0.00 91 1007.8
20260507003025 11 0.0 0.0 0.00 0.00 0.00 90 1007.7
20260507001524 11 0.0 0.0 0.00 0.00 0.00 90 1007.8
20260507000029 11 0.0 0.0 0.00 0.00 0.00 90 1007.8
20260506234524 11 0.0 0.0 0.00 0.00 0.00 89 1007.6
20260506233021 11 0.0 0.0 0.00 0.00 0.00 89 1008.5
20260506231524 12 0.0 0.0 0.00 0.00 0.00 89 1008.3
20260506230018 12 0.0 0.0 0.00 0.00 0.00 89 1008.6
20260506224517 12 0.0 0.0 0.00 0.00 0.00 89 1008.7
20260506223018 12 0.0 0.0 0.00 0.00 0.00 88 1008.8
20260506221516 12 0.0 0.0 0.00 0.00 0.00 89 1008.9
20260506220023 12 0.0 0.0 0.00 0.00 0.00 88 1008.7
20260506214514 12 0.0 0.0 0.00 0.00 0.00 88 1008.9
20260506213013 12 0.0 0.0 0.00 0.00 0.00 88 1009.0
20260506211512 12 0.0 0.0 0.00 0.00 0.00 88 1009.1
20260506210012 12 0.0 0.0 0.00 0.00 0.00 88 1009.1
20260506204511 12 0.0 0.0 0.00 0.00 0.00 88 1008.6
20260506203021 12 0.0 0.0 0.00 0.00 0.00 87 1008.7
20260506201510 12 0.0 0.0 0.00 0.00 0.00 87 1009.0
20260506200007 12 0.0 0.0 0.00 0.00 0.00 87 1009.1
20260506194511 12 0.0 0.0 0.00 0.00 0.00 87 1009.1
20260506193007 12 0.0 0.0 0.00 0.00 0.00 87 1009.3
20260506191507 12 0.0 0.0 0.00 0.00 0.00 87 1009.2
20260506190008 13 0.0 0.0 0.00 0.00 0.00 87 1009.3
20260506184505 12 0.0 0.0 0.00 0.00 0.00 87 1009.3
20260506183005 12 0.0 0.0 0.00 0.00 0.00 87 1009.6
20260506181503 12 0.0 0.0 0.00 0.00 0.00 87 1009.7
20260506180007 12 0.0 0.0 0.00 0.00 0.00 87 1009.9